Regional Weather Roundup
Issued by NWS

Home | Current Version | Previous Version | Text Only | Print | Product List | Glossary On
Versions: 1 2 3 4 5 6 7 8 9 10 11 12 13 14 15 16 17 18 19 20 21 22 23 24 25 26 27 28 29 30 31 32 33 34 35 36 37 38 39 40 41 42 43 44 45 46 47 48 49 50
000
ASUS43 KOAX 230910
RWRNE

WEATHER ROUNDUP FOR NEBRASKA
NATIONAL WEATHER SERVICE OMAHA NE
400 AM CDT WED MAY 23 2018

NOTES: SATELLITE DATA IS BEING USED TO AUGMENT CLOUD COVER ABOVE
       12000 FEET.
       "FAIR" INDICATES FEW OR NO CLOUDS BELOW 12,000 FEET WITH NO
       SIGNIFICANT WEATHER AND/OR OBSTRUCTIONS TO VISIBILITY.


NEZ001>004-019>022-054>056-231000-
NEBRASKA PANHANDLE

CITY           SKY/WX    TMP DP  RH WIND       PRES   REMARKS
SCOTTSBLUFF    PTCLDY    55  55 100 CALM      29.93R
ALLIANCE       PTCLDY    56  54  93 NE5       29.91S
CHADRON        PTCLDY    53  52  96 SE5       29.89F
GORDON         FAIR      56  53  92 CALM      29.89F
KIMBALL        PTCLDY    55  51  86 NW6       29.96S
SIDNEY         MOCLDY    56  51  84 NW5       29.95R
$$

NEZ057>060-069>072-079>082-231000-
SOUTHWEST NEBRASKA

CITY           SKY/WX    TMP DP  RH WIND       PRES   REMARKS
NORTH PLATTE   PTCLDY    68  59  73 S7        29.93R
IMPERIAL       MOCLDY    65  58  78 S7        29.93R
LEXINGTON      PTCLDY    68  62  79 S13       29.95R
MCCOOK         PTCLDY    66  57  72 S14       29.92F
OGALLALA       MOCLDY    65  56  73 S13G20    29.90F
$$

NEZ005>010-023>029-035>040-094-231000-
NORTH CENTRAL NEBRASKA

CITY           SKY/WX    TMP DP  RH WIND       PRES   REMARKS
VALENTINE      MOCLDY    69  61  75 S16       29.88F
AINSWORTH      PTCLDY    68  63  84 S13G18    29.91S
BROKEN BOW     MOCLDY    69  62  78 S13       29.94R
O`NEILL        MOCLDY    69  64  83 SE6       29.93S
ORD            MOCLDY    69  63  81 S6        29.93R
THEDFORD       PTCLDY    69  60  73 S16       29.92S
$$

NEZ041-046>049-061>064-073>077-083>087-231000-
SOUTH CENTRAL NEBRASKA

CITY           SKY/WX    TMP DP  RH WIND       PRES   REMARKS
GRAND ISLAND   CLEAR     67  62  84 S13       29.96S
AURORA         CLEAR     66  63  91 S8        29.97S
HASTINGS       CLOUDY    70  63  78 S8        29.97S
HEBRON         CLEAR     70  65  82 S10G16    29.99S
HOLDREGE       MOCLDY    67  62  84 S12       29.96S
KEARNEY        CLEAR     67  62  84 S12       29.96R
YORK           CLEAR     68  68 100 S10       29.98S
$$

NEZ011>018-030>034-042>045-231000-
NORTHEAST NEBRASKA

CITY           SKY/WX    TMP DP  RH WIND       PRES   REMARKS
NORFOLK        CLEAR     69  63  81 S12       29.95S
ALBION         CLEAR     66  64  91 SE7       29.96S
BLAIR          CLEAR     70  64  81 S7        30.00R
COLUMBUS       CLEAR     71  64  78 S16       29.96F
FREMONT        CLEAR     70  64  79 SE8       29.99R
TEKAMAH        CLEAR     64  62  93 SE8       29.98R
WAYNE          CLEAR     64  63  96 S5        29.96S
$$

NEZ050>053-065>068-078-088>093-231000-
SOUTHEAST NEBRASKA

CITY           SKY/WX    TMP DP  RH WIND       PRES   REMARKS
LINCOLN        CLEAR     66  62  87 S8        29.99R
OMAHA EPPLEY   PTCLDY    69  59  70 S6        29.99R
BEATRICE       CLEAR     70  65  85 S7        30.00S
FALLS CITY     CLEAR     66  62  87 SE6       30.01R
NEBRASKA CITY  CLEAR     67  66  97 S8        30.01S
PLATTSMOUTH    CLEAR     69  64  84 SE9       30.01R
$$

NEZ044-045-051>053-067-231000-
OMAHA AREA

CITY           SKY/WX    TMP DP  RH WIND       PRES   REMARKS
OMAHA EPPLEY   PTCLDY    69  59  70 S6        29.99R
BLAIR          CLEAR     70  64  81 S7        30.00R
FREMONT        CLEAR     70  64  79 SE8       29.99R
MILLARD        CLEAR     67  64  90 E5        29.99S
OFFUTT AFB     CLEAR     68  64  87 S7        29.99R
PLATTSMOUTH    CLEAR     69  64  84 SE9       30.01R
WAHOO          FAIR      65  61  88 S5        29.99R
$$




USA.gov is the U.S. government's official web portal to all federal, state and local government web resources and services.